This is the latest recevied weather packets stored in our database for station/object W7BL. If no packets are shown the sender has not sent any weather packets the latest 10 day(s).
| Time | Temp. | Humidity | Pressure | Rain* | Wind** | Luminosity | Snow |
|---|---|---|---|---|---|---|---|
| 1778081633 | 15° C | 63% | - | 0 mm | - | - | - |
| 1778081329 | 15° C | 61% | - | 0 mm | - | - | - |
| 1778081026 | 13.89° C | 63% | - | 0 mm | - | - | - |
| 1778080725 | 14.44° C | 62% | - | 0 mm | - | - | - |
| 1778080421 | 13.89° C | 64% | - | 0 mm | - | - | - |
| 1778080119 | 13.89° C | 64% | - | 0 mm | - | - | - |
| 1778079815 | 12.78° C | 68% | - | 0 mm | - | - | - |
| 1778079512 | 12.22° C | 69% | - | 0 mm | - | - | - |
| 1778079208 | 11.67° C | 72% | - | 0 mm | - | - | - |
| 1778078906 | 11.67° C | 74% | - | 0 mm | - | - | - |
| 1778078602 | 11.67° C | 74% | - | 0 mm | - | - | - |
| 1778078301 | 11.11° C | 74% | - | 0 mm | - | - | - |
| 1778077998 | 11.11° C | 73% | - | 0 mm | - | - | - |
| 1778077696 | 11.11° C | 73% | - | 0 mm | - | - | - |
| 1778077394 | 10.56° C | 74% | - | 0 mm | - | - | - |
| 1778077092 | 10.56° C | 74% | - | 0 mm | - | - | - |
| 1778076790 | 10.56° C | 76% | - | 0 mm | - | - | - |
| 1778076487 | 10.56° C | 75% | - | 0 mm | - | - | - |
| 1778076183 | 10.56° C | 76% | - | 0 mm | - | - | - |
| 1778075881 | 10.56° C | 79% | - | 0 mm | - | - | - |
| 1778075577 | 10° C | 78% | - | 0 mm | - | - | - |
| 1778075274 | 9.44° C | 79% | - | 0 mm | - | - | - |
| 1778074970 | 9.44° C | 80% | - | 0 mm | - | - | - |
| 1778074667 | 9.44° C | 82% | - | 0 mm | - | - | - |
| 1778074364 | 8.89° C | 80% | - | 0 mm | - | - | - |
* Rain latest hour (hover to see other rain measurements)
** Current wind speed in m/s (hover to see current wind gust speed)